Time,TemperatureF,DewpointF,PressureIn,WindDirection,WindDirectionDegrees,WindSpeedMPH,WindSpeedGustMPH,Humidity,HourlyPrecipIn,Conditions,Clouds,dailyrainin,SoftwareType,DateUTC
2013-03-04 00:01:00,37.0,22.0,30.00,South,185,4.0,7.0,54,-99.99,,,-99.99,,2013-03-04 06:01:00,
2013-03-04 00:11:00,37.0,22.0,30.01,SSW,200,2.0,7.0,54,-99.99,,,-99.99,,2013-03-04 06:11:00,
2013-03-04 00:21:00,37.0,22.0,30.01,SSW,200,2.0,7.0,54,-99.99,,,-99.99,,2013-03-04 06:21:00,
2013-03-04 00:32:00,37.0,22.0,30.00,SSE,165,4.0,9.0,54,-99.99,,,-99.99,,2013-03-04 06:32:00,
2013-03-04 00:42:00,37.0,23.0,30.00,SSW,195,3.0,9.0,55,-99.99,,,-99.99,,2013-03-04 06:42:00,
2013-03-04 00:51:00,37.0,23.0,30.00,SSW,195,3.0,9.0,55,-99.99,,,-99.99,,2013-03-04 06:51:00,
2013-03-04 01:01:00,38.0,23.0,30.00,South,170,4.0,8.0,56,-99.99,,,-99.99,,2013-03-04 07:01:00,
2013-03-04 01:11:00,38.0,23.0,30.00,SSW,200,3.0,11.0,56,-99.99,,,-99.99,,2013-03-04 07:11:00,
2013-03-04 01:21:00,38.0,23.0,30.00,SSW,200,3.0,11.0,56,-99.99,,,-99.99,,2013-03-04 07:21:00,
2013-03-04 01:32:00,37.0,24.0,30.00,South,190,3.0,10.0,57,-99.99,,,-99.99,,2013-03-04 07:32:00,
2013-03-04 01:42:00,37.0,24.0,29.99,SSW,195,2.0,9.0,58,-99.99,,,-99.99,,2013-03-04 07:42:00,
2013-03-04 01:52:00,37.0,24.0,29.99,SSE,155,5.0,9.0,58,-99.99,,,-99.99,,2013-03-04 07:52:00,
2013-03-04 02:02:00,37.0,24.0,29.99,SSE,155,5.0,9.0,58,-99.99,,,-99.99,,2013-03-04 08:02:00,
2013-03-04 02:11:00,37.0,24.0,29.98,SSE,155,5.0,10.0,60,-99.99,,,-99.99,,2013-03-04 08:11:00,
2013-03-04 02:22:00,37.0,24.0,29.98,SSE,155,5.0,10.0,60,-99.99,,,-99.99,,2013-03-04 08:22:00,
2013-03-04 02:32:00,36.0,26.0,29.97,South,180,4.0,8.0,65,-99.99,,,-99.99,,2013-03-04 08:32:00,
2013-03-04 02:42:00,36.0,26.0,29.97,SE,135,5.0,11.0,66,-99.99,,,-99.99,,2013-03-04 08:42:00,
2013-03-04 02:52:00,36.0,26.0,29.97,SE,135,2.0,9.0,67,-99.99,,,-99.99,,2013-03-04 08:52:00,
2013-03-04 03:02:00,36.0,26.0,29.97,SE,135,2.0,9.0,67,-99.99,,,-99.99,,2013-03-04 09:02:00,
2013-03-04 03:11:00,36.0,26.0,29.96,SSE,155,5.0,10.0,68,-99.99,,,-99.99,,2013-03-04 09:11:00,
2013-03-04 03:21:00,36.0,26.0,29.96,SSE,155,5.0,10.0,68,-99.99,,,-99.99,,2013-03-04 09:21:00,
2013-03-04 03:32:00,36.0,26.0,29.96,SE,125,2.0,9.0,68,-99.99,,,-99.99,,2013-03-04 09:32:00,
2013-03-04 03:42:00,36.0,26.0,29.95,ESE,115,5.0,13.0,68,-99.99,,,-99.99,,2013-03-04 09:42:00,
2013-03-04 03:52:00,36.0,26.0,29.95,ESE,115,5.0,13.0,68,-99.99,,,-99.99,,2013-03-04 09:52:00,
2013-03-04 04:01:00,35.0,26.0,29.94,SE,140,5.0,10.0,68,-99.99,,,-99.99,,2013-03-04 10:01:00,
2013-03-04 04:11:00,35.0,26.0,29.94,SSE,155,7.0,12.0,67,-99.99,,,-99.99,,2013-03-04 10:11:00,
2013-03-04 04:22:00,35.0,26.0,29.94,SSE,155,7.0,12.0,67,-99.99,,,-99.99,,2013-03-04 10:22:00,
2013-03-04 04:32:00,35.0,25.0,29.93,SE,145,8.0,15.0,67,-99.99,,,-99.99,,2013-03-04 10:32:00,
2013-03-04 04:42:00,35.0,25.0,29.93,SE,140,5.0,13.0,67,-99.99,,,-99.99,,2013-03-04 10:42:00,
2013-03-04 04:52:00,35.0,25.0,29.93,SE,140,5.0,13.0,67,-99.99,,,-99.99,,2013-03-04 10:52:00,
2013-03-04 05:02:00,35.0,25.0,29.93,SE,145,8.0,14.0,66,-99.99,,,-99.99,,2013-03-04 11:02:00,
2013-03-04 05:11:00,35.0,25.0,29.93,SE,145,4.0,11.0,66,-99.99,,,-99.99,,2013-03-04 11:11:00,
2013-03-04 05:22:00,35.0,25.0,29.93,SE,145,4.0,11.0,66,-99.99,,,-99.99,,2013-03-04 11:22:00,
2013-03-04 05:32:00,35.0,24.0,29.92,SSE,160,6.0,15.0,64,-99.99,,,-99.99,,2013-03-04 11:32:00,
2013-03-04 05:42:00,35.0,24.0,29.92,SE,140,5.0,12.0,63,-99.99,,,-99.99,,2013-03-04 11:42:00,
2013-03-04 05:52:00,36.0,24.0,29.92,SSE,160,8.0,15.0,62,-99.99,,,-99.99,,2013-03-04 11:52:00,
2013-03-04 06:01:00,36.0,24.0,29.92,SSE,160,8.0,15.0,62,-99.99,,,-99.99,,2013-03-04 12:01:00,
2013-03-04 06:11:00,35.0,24.0,29.91,South,180,3.0,18.0,62,-99.99,,,-99.99,,2013-03-04 12:11:00,
2013-03-04 06:22:00,35.0,24.0,29.91,South,180,3.0,18.0,62,-99.99,,,-99.99,,2013-03-04 12:22:00,
2013-03-04 06:32:00,36.0,24.0,29.91,SE,145,5.0,14.0,62,-99.99,,,-99.99,,2013-03-04 12:32:00,
2013-03-04 06:42:00,36.0,24.0,29.91,SE,140,6.0,13.0,62,-99.99,,,-99.99,,2013-03-04 12:42:00,
2013-03-04 06:52:00,36.0,24.0,29.91,SE,140,6.0,13.0,62,-99.99,,,-99.99,,2013-03-04 12:52:00,
2013-03-04 07:02:00,36.0,23.0,29.91,SE,140,4.0,15.0,61,-99.99,,,-99.99,,2013-03-04 13:02:00,
2013-03-04 07:11:00,36.0,23.0,29.90,South,185,3.0,14.0,61,-99.99,,,-99.99,,2013-03-04 13:11:00,
2013-03-04 07:21:00,36.0,23.0,29.90,South,185,3.0,14.0,61,-99.99,,,-99.99,,2013-03-04 13:21:00,
2013-03-04 07:32:00,36.0,23.0,29.90,SE,140,6.0,14.0,60,-99.99,,,-99.99,,2013-03-04 13:32:00,
2013-03-04 07:42:00,36.0,23.0,29.90,SE,145,4.0,13.0,60,-99.99,,,-99.99,,2013-03-04 13:42:00,
2013-03-04 07:52:00,36.0,23.0,29.90,SE,145,4.0,13.0,60,-99.99,,,-99.99,,2013-03-04 13:52:00,
2013-03-04 08:01:00,36.0,23.0,29.89,SSE,155,6.0,15.0,59,-99.99,,,-99.99,,2013-03-04 14:01:00,
2013-03-04 08:11:00,36.0,23.0,29.88,SSE,155,7.0,20.0,58,-99.99,,,-99.99,,2013-03-04 14:11:00,
2013-03-04 08:22:00,36.0,23.0,29.88,SSE,155,7.0,20.0,58,-99.99,,,-99.99,,2013-03-04 14:22:00,
2013-03-04 08:32:00,37.0,23.0,29.88,SSE,165,4.0,16.0,57,-99.99,,,-99.99,,2013-03-04 14:32:00,
2013-03-04 08:42:00,37.0,23.0,29.89,SE,135,9.0,18.0,56,-99.99,,,-99.99,,2013-03-04 14:42:00,
2013-03-04 08:52:00,37.0,23.0,29.89,SE,135,9.0,18.0,56,-99.99,,,-99.99,,2013-03-04 14:52:00,
2013-03-04 09:01:00,38.0,23.0,29.88,South,175,6.0,13.0,55,-99.99,,,-99.99,,2013-03-04 15:01:00,
2013-03-04 09:11:00,38.0,23.0,29.88,SE,145,4.0,22.0,55,-99.99,,,-99.99,,2013-03-04 15:11:00,
2013-03-04 09:22:00,38.0,23.0,29.88,SE,145,4.0,22.0,55,-99.99,,,-99.99,,2013-03-04 15:22:00,
2013-03-04 09:32:00,39.0,23.0,29.86,SSE,160,9.0,15.0,53,-99.99,,,-99.99,,2013-03-04 15:32:00,
2013-03-04 09:42:00,39.0,23.0,29.86,SSE,150,4.0,18.0,51,-99.99,,,-99.99,,2013-03-04 15:42:00,
2013-03-04 09:52:00,39.0,23.0,29.86,SSE,150,4.0,18.0,51,-99.99,,,-99.99,,2013-03-04 15:52:00,
2013-03-04 10:02:00,40.0,23.0,29.85,SE,145,5.0,17.0,50,-99.99,,,-99.99,,2013-03-04 16:02:00,
2013-03-04 10:11:00,40.0,22.0,29.86,SSW,205,10.0,22.0,49,-99.99,,,-99.99,,2013-03-04 16:11:00,
2013-03-04 10:21:00,40.0,22.0,29.86,SSW,205,10.0,22.0,49,-99.99,,,-99.99,,2013-03-04 16:21:00,
2013-03-04 10:32:00,41.0,24.0,29.85,SSE,160,4.0,16.0,50,-99.99,,,-99.99,,2013-03-04 16:32:00,
2013-03-04 10:42:00,41.0,24.0,29.85,SSE,160,4.0,15.0,50,-99.99,,,-99.99,,2013-03-04 16:42:00,
2013-03-04 10:52:00,41.0,24.0,29.85,SSE,160,4.0,15.0,50,-99.99,,,-99.99,,2013-03-04 16:52:00,
2013-03-04 11:02:00,42.0,23.0,29.84,South,190,8.0,19.0,48,-99.99,,,-99.99,,2013-03-04 17:02:00,
2013-03-04 11:11:00,42.0,23.0,29.83,SSE,165,7.0,19.0,47,-99.99,,,-99.99,,2013-03-04 17:11:00,
2013-03-04 11:22:00,42.0,23.0,29.83,SSE,165,7.0,19.0,47,-99.99,,,-99.99,,2013-03-04 17:22:00,
2013-03-04 11:32:00,43.0,24.0,29.82,SSE,150,9.0,19.0,47,-99.99,,,-99.99,,2013-03-04 17:32:00,
2013-03-04 11:42:00,44.0,24.0,29.82,SSE,150,8.0,20.0,46,-99.99,,,-99.99,,2013-03-04 17:42:00,
2013-03-04 11:52:00,44.0,24.0,29.82,SSE,150,8.0,20.0,46,-99.99,,,-99.99,,2013-03-04 17:52:00,
2013-03-04 12:01:00,46.0,26.0,29.81,SSE,165,3.0,14.0,45,-99.99,,,-99.99,,2013-03-04 18:01:00,
2013-03-04 12:11:00,47.0,25.0,29.80,South,180,5.0,22.0,43,-99.99,,,-99.99,,2013-03-04 18:11:00,
2013-03-04 12:22:00,47.0,25.0,29.80,South,180,5.0,22.0,43,-99.99,,,-99.99,,2013-03-04 18:22:00,
2013-03-04 12:32:00,49.0,25.0,29.79,SSE,165,8.0,27.0,39,-99.99,,,-99.99,,2013-03-04 18:32:00,
2013-03-04 12:42:00,49.0,25.0,29.79,SSE,150,8.0,26.0,40,-99.99,,,-99.99,,2013-03-04 18:42:00,
2013-03-04 12:52:00,50.0,27.0,29.78,South,175,8.0,20.0,41,-99.99,,,-99.99,,2013-03-04 18:52:00,
2013-03-04 13:02:00,50.0,27.0,29.78,South,175,8.0,20.0,41,-99.99,,,-99.99,,2013-03-04 19:02:00,
2013-03-04 13:11:00,50.0,27.0,29.77,SSW,195,6.0,19.0,40,-99.99,,,-99.99,,2013-03-04 19:11:00,
2013-03-04 13:22:00,50.0,27.0,29.77,SSW,195,6.0,19.0,40,-99.99,,,-99.99,,2013-03-04 19:22:00,
2013-03-04 13:32:00,50.0,28.0,29.77,SSW,195,8.0,19.0,42,-99.99,,,-99.99,,2013-03-04 19:32:00,
2013-03-04 13:42:00,51.0,29.0,29.76,SE,130,9.0,17.0,43,-99.99,,,-99.99,,2013-03-04 19:42:00,
2013-03-04 13:52:00,51.0,29.0,29.76,SE,130,9.0,17.0,43,-99.99,,,-99.99,,2013-03-04 19:52:00,
2013-03-04 14:02:00,51.0,29.0,29.75,SSW,200,10.0,19.0,42,-99.99,,,-99.99,,2013-03-04 20:02:00,
2013-03-04 14:11:00,51.0,30.0,29.76,South,190,10.0,19.0,43,-99.99,,,-99.99,,2013-03-04 20:11:00,
2013-03-04 14:22:00,51.0,30.0,29.76,South,190,10.0,19.0,43,-99.99,,,-99.99,,2013-03-04 20:22:00,
2013-03-04 14:32:00,50.0,29.0,29.75,South,185,7.0,14.0,44,-99.99,,,-99.99,,2013-03-04 20:32:00,
2013-03-04 14:42:00,51.0,30.0,29.75,SW,215,7.0,15.0,45,-99.99,,,-99.99,,2013-03-04 20:42:00,
2013-03-04 14:52:00,51.0,30.0,29.75,SW,215,7.0,15.0,45,-99.99,,,-99.99,,2013-03-04 20:52:00,
2013-03-04 15:02:00,51.0,31.0,29.73,SSE,160,6.0,17.0,45,-99.99,,,-99.99,,2013-03-04 21:02:00,
2013-03-04 15:12:00,52.0,31.0,29.73,SSE,160,11.0,19.0,44,-99.99,,,-99.99,,2013-03-04 21:12:00,
2013-03-04 15:22:00,52.0,31.0,29.73,SSE,160,11.0,19.0,44,-99.99,,,-99.99,,2013-03-04 21:22:00,
2013-03-04 15:32:00,53.0,32.0,29.73,ESE,120,4.0,19.0,45,-99.99,,,-99.99,,2013-03-04 21:32:00,
2013-03-04 15:42:00,52.0,32.0,29.73,SW,230,7.0,17.0,46,-99.99,,,-99.99,,2013-03-04 21:42:00,
2013-03-04 15:52:00,52.0,32.0,29.73,SW,230,7.0,17.0,46,-99.99,,,-99.99,,2013-03-04 21:52:00,
2013-03-04 16:02:00,53.0,32.0,29.73,SSE,165,7.0,16.0,45,-99.99,,,-99.99,,2013-03-04 22:02:00,
2013-03-04 16:12:00,53.0,33.0,29.73,South,180,6.0,17.0,47,-99.99,,,-99.99,,2013-03-04 22:12:00,
2013-03-04 16:22:00,53.0,33.0,29.73,South,180,6.0,17.0,47,-99.99,,,-99.99,,2013-03-04 22:22:00,
2013-03-04 16:32:00,53.0,34.0,29.73,South,180,7.0,13.0,49,-99.99,,,-99.99,,2013-03-04 22:32:00,
2013-03-04 16:42:00,52.0,34.0,29.73,SSW,210,10.0,21.0,49,-99.99,,,-99.99,,2013-03-04 22:42:00,
2013-03-04 16:52:00,51.0,33.0,29.74,South,170,6.0,15.0,50,-99.99,,,-99.99,,2013-03-04 22:52:00,
2013-03-04 17:02:00,51.0,33.0,29.74,South,170,6.0,15.0,50,-99.99,,,-99.99,,2013-03-04 23:02:00,
2013-03-04 17:11:00,51.0,34.0,29.74,South,180,8.0,15.0,51,-99.99,,,-99.99,,2013-03-04 23:11:00,
2013-03-04 17:20:00,51.0,35.0,29.75,South,190,9.0,13.0,55,-99.99,,,-99.99,,2013-03-04 23:20:00,
2013-03-04 17:22:00,51.0,34.0,29.74,South,180,8.0,15.0,51,-99.99,,,-99.99,,2013-03-04 23:22:00,
2013-03-04 17:32:00,51.0,34.0,29.74,SW,215,7.0,15.0,52,-99.99,,,-99.99,,2013-03-04 23:32:00,
2013-03-04 17:42:00,51.0,35.0,29.74,SSE,160,6.0,15.0,53,-99.99,,,-99.99,,2013-03-04 23:42:00,
2013-03-04 17:52:00,51.0,35.0,29.74,SSE,160,6.0,15.0,53,-99.99,,,-99.99,,2013-03-04 23:52:00,
2013-03-04 18:02:00,51.0,35.0,29.75,South,190,9.0,13.0,55,-99.99,,,-99.99,,2013-03-05 00:02:00,
2013-03-04 18:12:00,51.0,35.0,29.75,South,190,9.0,13.0,55,-99.99,,,-99.99,,2013-03-05 00:12:00,
2013-03-04 18:32:00,50.0,36.0,29.75,SE,135,3.0,11.0,58,-99.99,,,-99.99,,2013-03-05 00:32:00,
2013-03-04 18:42:00,50.0,36.0,29.75,South,175,4.0,10.0,59,-99.99,,,-99.99,,2013-03-05 00:42:00,
2013-03-04 18:51:00,50.0,36.0,29.75,South,175,4.0,10.0,59,-99.99,,,-99.99,,2013-03-05 00:51:00,
2013-03-04 19:01:00,50.0,37.0,29.76,South,185,5.0,9.0,61,-99.99,,,-99.99,,2013-03-05 01:01:00,
2013-03-04 19:12:00,50.0,38.0,29.77,South,175,3.0,7.0,62,-99.99,,,-99.99,,2013-03-05 01:12:00,
2013-03-04 19:22:00,50.0,38.0,29.77,South,175,3.0,7.0,62,-99.99,,,-99.99,,2013-03-05 01:22:00,
2013-03-04 19:32:00,50.0,38.0,29.77,South,170,3.0,10.0,62,-99.99,,,-99.99,,2013-03-05 01:32:00,
2013-03-04 19:42:00,50.0,38.0,29.77,SSE,160,3.0,7.0,63,-99.99,,,-99.99,,2013-03-05 01:42:00,
2013-03-04 19:52:00,50.0,38.0,29.77,SSE,160,3.0,7.0,63,-99.99,,,-99.99,,2013-03-05 01:52:00,
2013-03-04 20:01:00,50.0,38.0,29.77,SW,230,3.0,7.0,63,-99.99,,,-99.99,,2013-03-05 02:01:00,
2013-03-04 20:11:00,50.0,38.0,29.77,SSE,150,3.0,6.0,64,-99.99,,,-99.99,,2013-03-05 02:11:00,
2013-03-04 20:22:00,50.0,38.0,29.77,SSE,150,3.0,6.0,64,-99.99,,,-99.99,,2013-03-05 02:22:00,
2013-03-04 20:32:00,50.0,39.0,29.77,SSE,165,1.0,8.0,65,-99.99,,,-99.99,,2013-03-05 02:32:00,
2013-03-04 20:42:00,49.0,38.0,29.77,ESE,115,3.0,5.0,64,-99.99,,,-99.99,,2013-03-05 02:42:00,
2013-03-04 20:52:00,49.0,38.0,29.77,ESE,115,3.0,5.0,64,-99.99,,,-99.99,,2013-03-05 02:52:00,
2013-03-04 21:02:00,49.0,38.0,29.78,South,170,2.0,7.0,64,-99.99,,,-99.99,,2013-03-05 03:02:00,
2013-03-04 21:12:00,49.0,38.0,29.78,SE,140,3.0,8.0,65,-99.99,,,-99.99,,2013-03-05 03:12:00,
2013-03-04 21:22:00,49.0,38.0,29.78,SE,140,3.0,8.0,65,-99.99,,,-99.99,,2013-03-05 03:22:00,
2013-03-04 21:32:00,49.0,39.0,29.78,SSE,160,2.0,5.0,68,-99.99,,,-99.99,,2013-03-05 03:32:00,
2013-03-04 21:42:00,49.0,40.0,29.78,SW,215,1.0,7.0,71,-99.99,,,-99.99,,2013-03-05 03:42:00,
2013-03-04 21:52:00,49.0,40.0,29.78,SW,215,1.0,7.0,71,-99.99,,,-99.99,,2013-03-05 03:52:00,
2013-03-04 22:02:00,48.0,36.0,29.78,ENE,75,4.0,7.0,63,-99.99,,,-99.99,,2013-03-05 04:02:00,
2013-03-04 22:12:00,48.0,35.0,29.78,East,95,4.0,9.0,61,-99.99,,,-99.99,,2013-03-05 04:12:00,
2013-03-04 22:22:00,48.0,35.0,29.78,East,95,4.0,9.0,61,-99.99,,,-99.99,,2013-03-05 04:22:00,
2013-03-04 22:32:00,47.0,34.0,29.78,East,85,5.0,9.0,61,-99.99,,,-99.99,,2013-03-05 04:32:00,
2013-03-04 22:42:00,47.0,34.0,29.78,ENE,75,5.0,10.0,62,-99.99,,,-99.99,,2013-03-05 04:42:00,
2013-03-04 22:52:00,47.0,34.0,29.78,ENE,75,5.0,10.0,62,-99.99,,,-99.99,,2013-03-05 04:52:00,
2013-03-04 23:02:00,47.0,35.0,29.78,ENE,65,2.0,6.0,63,-99.99,,,-99.99,,2013-03-05 05:02:00,
2013-03-04 23:12:00,47.0,34.0,29.78,ENE,75,5.0,8.0,61,-99.99,,,-99.99,,2013-03-05 05:12:00,
2013-03-04 23:22:00,47.0,34.0,29.78,ENE,75,5.0,8.0,61,-99.99,,,-99.99,,2013-03-05 05:22:00,
2013-03-04 23:32:00,46.0,33.0,29.79,ENE,75,3.0,7.0,59,-99.99,,,-99.99,,2013-03-05 05:32:00,
2013-03-04 23:42:00,46.0,33.0,29.78,ENE,70,5.0,8.0,59,-99.99,,,-99.99,,2013-03-05 05:42:00,
2013-03-04 23:52:00,46.0,33.0,29.78,ENE,70,5.0,8.0,59,-99.99,,,-99.99,,2013-03-05 05:52:00,